Benton Harbor, MI

6:52 AM EST on December 13, 2017 (GMT -0500)
Southwest Michigan Regional

Weather History for KBEH - December, 2012

Change the Weather History Date:

Wednesday, December 26, 2012

  Actual Average Record
Temperature  
Mean Temperature 28 °F -  
Max Temperature 30 °F 31 °F 58 °F (1982)
Min Temperature 26 °F 17 °F -2 °F (1983)
Degree Days  
Heating Degree Days 37    
Moisture  
Dew Point 26 °F    
Average Humidity 92    
Maximum Humidity 100    
Minimum Humidity 79    
Precipitation  
Precipitation 0.00 in - - ()
Sea Level Pressure  
Sea Level Pressure 30.03 in    
Wind  
Wind Speed 10 mph (NNE)    
Max Wind Speed 14 mph    
Max Gust Speed 24 mph    
Visibility 7 miles    
Events Snow    
Averages and records for this station are not official NWS values.
T = Trace of Precipitation, MM = Missing Value Source: NWS Daily Summary

Daily Weather History Graph

Daily Weather History Graph

Search for Another Location

Airport or City:

Trip Planner

Search our weather history database for the weather conditions in past years. The results will help you decide how hot, cold, wet, or windy it might be!

Date:

Astronomy

Dec. 26, 2012 Rise Set
Actual Time 8:13 AM EST 5:20 PM EST
Civil Twilight 7:41 AM EST 5:52 PM EST
Nautical Twilight 7:05 AM EST 6:27 PM EST
Astronomical Twilight 6:31 AM EST 7:01 PM EST
Moon 4:13 PM EST (12/26) 6:35 AM EST (12/26)
Length of Visible Light 10h 10m
Length of Day
9h 07m
Waxing Gibbous, 97% of the Moon is Illuminated
Dec 26
Waxing Gibbous
Dec 28
Full
Jan 4
Last Quarter
Jan 11
New
Jan 18
First Quarter

Hourly Weather History & Observations

Time (EST) Temp. Windchill Dew Point Humidity Pressure Visibility Wind Dir Wind Speed Gust Speed Precip Events Conditions
12:53 AM 27.0 °F 17.3 °F - N/A% 30.25 in 10.0 mi ENE 10.4 mph - N/A   Clear
1:53 AM 27.0 °F 16.7 °F - N/A% 30.23 in 10.0 mi ENE 11.5 mph 17.3 mph N/A   Mostly Cloudy
2:53 AM 27.0 °F 17.3 °F - N/A% 30.21 in 10.0 mi NE 10.4 mph - N/A   Overcast
3:53 AM 27.0 °F 19.5 °F - N/A% 30.15 in 10.0 mi Variable 6.9 mph - N/A   Overcast
4:53 AM 27.0 °F 19.5 °F - N/A% 30.14 in 10.0 mi NE 6.9 mph 17.3 mph N/A   Overcast
5:09 AM 28.4 °F 19.1 °F - N/A% 30.12 in 10.0 mi NE 10.4 mph - N/A   Overcast
5:53 AM 28.0 °F 18.6 °F - N/A% 30.13 in 10.0 mi NE 10.4 mph 17.3 mph N/A   Overcast
6:23 AM 28.4 °F 18.5 °F - N/A% 30.09 in 10.0 mi NE 11.5 mph 19.6 mph N/A   Overcast
6:35 AM 28.4 °F 19.1 °F - N/A% 30.08 in 10.0 mi NE 10.4 mph 23.0 mph N/A   Overcast
6:53 AM 28.0 °F 17.0 °F - N/A% 30.09 in 10.0 mi NE 13.8 mph 21.9 mph N/A   Overcast
7:53 AM 28.0 °F 18.6 °F 24.1 °F 85% 30.08 in 10.0 mi NE 10.4 mph 18.4 mph N/A   Overcast
8:53 AM 28.0 °F 18.6 °F 24.1 °F 85% 30.05 in 10.0 mi NNE 10.4 mph 21.9 mph N/A   Overcast
9:16 AM 28.4 °F 20.4 °F 24.8 °F 86% 30.02 in 10.0 mi NNE 8.1 mph 20.7 mph N/A   Mostly Cloudy
9:53 AM 28.9 °F 19.2 °F 24.1 °F 82% 30.03 in 10.0 mi NNE 11.5 mph 20.7 mph N/A   Overcast
10:17 AM 28.4 °F 19.1 °F 24.8 °F 86% 30.00 in 10.0 mi NNE 10.4 mph 18.4 mph N/A   Overcast
10:53 AM 30.0 °F 22.4 °F 24.1 °F 79% 30.03 in 10.0 mi NE 8.1 mph 19.6 mph N/A   Overcast
11:53 AM 30.0 °F 20.0 °F 25.0 °F 82% 30.01 in 10.0 mi NE 12.7 mph 19.6 mph N/A   Overcast
12:53 PM 30.0 °F 21.1 °F 25.0 °F 82% 29.97 in 10.0 mi NNE 10.4 mph 23.0 mph N/A   Overcast
1:53 PM 30.0 °F 21.1 °F 25.0 °F 82% 29.96 in 10.0 mi NE 10.4 mph 24.2 mph N/A   Overcast
2:24 PM 30.2 °F 20.8 °F 26.6 °F 86% 29.94 in 2.5 mi NNE 11.5 mph 18.4 mph 0.00 in Snow Light Snow
2:53 PM 30.0 °F 21.7 °F 27.0 °F 88% 29.96 in 2.5 mi NNE 9.2 mph 18.4 mph 0.00 in Snow Light Snow
3:00 PM 30.2 °F 21.3 °F 28.4 °F 93% 29.93 in 1.2 mi NNE 10.4 mph 18.4 mph 0.00 in Snow Light Snow
3:25 PM 28.4 °F 19.1 °F 28.4 °F 100% 29.94 in 1.5 mi North 10.4 mph 17.3 mph 0.00 in Snow Light Snow
3:42 PM 28.4 °F 21.2 °F 28.4 °F 100% 29.95 in 2.0 mi NNE 6.9 mph - 0.00 in Snow Light Snow
3:51 PM 28.4 °F 19.1 °F 28.4 °F 100% 29.94 in 1.2 mi North 10.4 mph 19.6 mph 0.00 in Snow Light Snow
3:52 PM 28.9 °F 18.6 °F 28.0 °F 96% 29.97 in 1.2 mi North 12.7 mph 20.7 mph 0.00 in Snow Light Snow
4:15 PM 28.4 °F 20.4 °F 28.4 °F 100% 29.95 in 1.5 mi NNE 8.1 mph 24.2 mph 0.00 in Snow Light Snow
4:28 PM 28.4 °F 21.2 °F 28.4 °F 100% 29.95 in 1.0 mi NNE 6.9 mph 21.9 mph 0.00 in Snow Light Snow
4:46 PM 28.4 °F 19.7 °F 28.4 °F 100% 29.96 in 0.8 mi North 9.2 mph 21.9 mph 0.00 in Snow Light Snow
4:53 PM 28.0 °F 20.8 °F 28.0 °F 100% 29.98 in 1.0 mi Variable 6.9 mph 18.4 mph 0.00 in Snow Light Snow
5:25 PM 28.4 °F 19.7 °F 28.4 °F 100% 29.97 in 1.8 mi NNE 9.2 mph 20.7 mph 0.00 in Snow Light Snow
5:27 PM 28.4 °F 19.1 °F 28.4 °F 100% 29.97 in 2.0 mi NNE 10.4 mph 20.7 mph 0.00 in Snow Light Snow
5:53 PM 28.0 °F 20.0 °F 27.0 °F 96% 29.99 in 4.0 mi NNE 8.1 mph 16.1 mph 0.00 in Snow Light Snow
7:42 PM 26.6 °F 19.1 °F 26.6 °F 100% 30.01 in 4.0 mi Variable 6.9 mph - 0.00 in Snow Light Snow
7:53 PM 27.0 °F 18.7 °F 27.0 °F 100% 30.04 in 4.0 mi North 8.1 mph - 0.00 in Snow Light Snow
8:53 PM 27.0 °F 18.7 °F 26.1 °F 96% 30.04 in 6.0 mi North 8.1 mph - 0.00 in   Overcast
9:00 PM 26.6 °F 16.2 °F 24.8 °F 93% 30.02 in 8.0 mi North 11.5 mph 19.6 mph N/A   Overcast
9:53 PM 28.0 °F 21.7 °F 25.0 °F 88% 30.05 in 10.0 mi Variable 5.8 mph - N/A   Overcast
10:53 PM 28.0 °F 20.0 °F 24.1 °F 85% 30.04 in 10.0 mi NNE 8.1 mph - N/A   Overcast
11:00 PM 28.4 °F 21.2 °F 24.8 °F 86% 30.03 in 10.0 mi NNE 6.9 mph - N/A   Overcast
11:53 PM 28.0 °F 22.8 °F 24.1 °F 85% 30.07 in 10.0 mi NE 4.6 mph - N/A   Overcast